FENGYUN 1C DEB

Last updated on Fri Jun 10 2016 05:55:18 GMT+0000 (Coordinated Universal Time)

1 41018U 99025EXY 16151.02571691 .00000460 00000-0 62096-3 0 9990 2 41018 99.8470 85.1601 0328035 42.9635 319.6622 13.44787779412737
UTC large
Height (km)
Speed (km/s)
/
Latitude / Longitude
Inclination (degrees)
Orbital Period (minutes)
Azimuth
Elevation
Range (km)
Doppler Factor

Next 0 passes for location: London (51.5072 / 0.1276)

Sorry there are no passes over London.
FENGYUN 1C DEB